User: anonymous   Login
Location: Dallas
(32.7833°N, 96.8000°W)
Time: 10:23:42
(UTC-05:00)
Language:

N. Korean satellite - Orbit

View from above orbital plane
View from above orbital plane
View from above satellite
View from above satellite

Ground track
Ground track

The orbit data is extracted from the following two-line orbital elements,

1 39026U 12072A   21138.20687025  .00002220  00000-0  77285-4 0  9996
2 39026  97.2441 131.8128 0037229 130.2831 230.1675 15.30080165468465
Epoch (UTC): 18 May 2021 04:57:53
Eccentricity: 0.0037229
inclination: 97.2441°
perigee height: 450 km
apogee height: 501 km
right ascension of ascending node: 131.8128°
argument of perigee: 130.2831°
revolutions per day: 15.30080165
mean anomaly at epoch: 230.1675°
orbit number at epoch: 46846

The dashed part of the orbit path shows where the satellite is in the earth's shadow,  

DLR